Hourly Weather Port Augusta

Today, 15 April, Thursday

Time Temperature Precipitation Wind Pressure Humidity
00:00 +16°C° 0 mm 3 mps 763 mmHg 69%
01:00 +16°C° 0 mm 3 mps 763 mmHg 69%
02:00 +16°C° 0 mm 3 mps 762 mmHg 69%
03:00 +16°C° 0 mm 3 mps 762 mmHg 69%
04:00 +14°C° 0 mm 3 mps 762 mmHg 70%
05:00 +15°C° 0 mm 2 mps 763 mmHg 71%
06:00 +15°C° 0 mm 2 mps 763 mmHg 73%
07:00 +16°C° 0 mm 3 mps 763 mmHg 64%
08:00 +18°C° 0 mm 3 mps 764 mmHg 56%
09:00 +19°C° 0 mm 3 mps 764 mmHg 48%
10:00 +20°C° 0 mm 4 mps 763 mmHg 44%
11:00 +21°C° 0 mm 4 mps 763 mmHg 40%
12:00 +22°C° 0 mm 4 mps 763 mmHg 37%
13:00 +22°C° 0 mm 5 mps 762 mmHg 36%
14:00 +22°C° 0 mm 5 mps 762 mmHg 36%
15:00 +22°C° 0 mm 6 mps 762 mmHg 36%
16:00 +21°C° 0 mm 5 mps 762 mmHg 42%
17:00 +20°C° 0 mm 5 mps 763 mmHg 47%
18:00 +19°C° 0 mm 5 mps 763 mmHg 52%
19:00 +18°C° 0 mm 4 mps 763 mmHg 53%
20:00 +18°C° 0 mm 3 mps 764 mmHg 55%
21:00 +17°C° 0 mm 3 mps 764 mmHg 56%
22:00 +17°C° 0 mm 3 mps 764 mmHg 59%
23:00 +16°C° 0 mm 3 mps 764 mmHg 62%

Tomorrow, 16 April, Friday

Time Temperature Precipitation Wind Pressure Humidity
00:00 +16°C° 0 mm 3 mps 764 mmHg 64%
01:00 +16°C° 0 mm 3 mps 764 mmHg 68%
02:00 +14°C° 0 mm 3 mps 764 mmHg 72%
03:00 +14°C° 0 mm 3 mps 764 mmHg 75%
04:00 +15°C° 0 mm 2 mps 764 mmHg 77%
05:00 +14°C° 0 mm 2 mps 765 mmHg 79%
06:00 +14°C° 0 mm 1 mps 765 mmHg 82%
07:00 +16°C° 0 mm 1 mps 765 mmHg 73%
08:00 +17°C° 0 mm 2 mps 766 mmHg 65%
09:00 +19°C° 0 mm 2 mps 766 mmHg 57%
10:00 +20°C° 0 mm 2 mps 766 mmHg 52%
11:00 +21°C° 0 mm 2 mps 765 mmHg 46%
12:00 +23°C° 0 mm 2 mps 765 mmHg 41%
13:00 +22°C° 0 mm 3 mps 764 mmHg 40%
14:00 +23°C° 0 mm 4 mps 764 mmHg 39%
15:00 +23°C° 0 mm 4 mps 764 mmHg 38%
16:00 +21°C° 0 mm 4 mps 764 mmHg 45%
17:00 +20°C° 0 mm 4 mps 765 mmHg 51%
18:00 +19°C° 0 mm 4 mps 765 mmHg 57%
19:00 +18°C° 0 mm 4 mps 766 mmHg 62%
20:00 +18°C° 0 mm 4 mps 766 mmHg 67%
21:00 +17°C° 0 mm 4 mps 767 mmHg 72%
22:00 +17°C° 0 mm 4 mps 767 mmHg 73%
23:00 +16°C° 0 mm 3 mps 767 mmHg 73%

Day after tomorrow, 17 April, Saturday

Time Temperature Precipitation Wind Pressure Humidity
00:00 +16°C° 0 mm 3 mps 767 mmHg 74%
01:00 +16°C° 0 mm 3 mps 767 mmHg 75%
02:00 +14°C° 0 mm 3 mps 767 mmHg 77%
03:00 +14°C° 0 mm 3 mps 767 mmHg 78%
04:00 +14°C° 0 mm 3 mps 767 mmHg 80%
05:00 +13°C° 0 mm 3 mps 767 mmHg 81%
06:00 +13°C° 0 mm 3 mps 768 mmHg 83%
07:00 +16°C° 0 mm 3 mps 768 mmHg 75%
08:00 +17°C° 0 mm 4 mps 768 mmHg 67%
09:00 +19°C° 0 mm 4 mps 768 mmHg 59%
10:00 +20°C° 0 mm 5 mps 768 mmHg 54%
11:00 +21°C° 0 mm 5 mps 768 mmHg 50%
12:00 +21°C° 0 mm 6 mps 767 mmHg 45%
13:00 +21°C° 0 mm 6 mps 767 mmHg 44%
14:00 +21°C° 0 mm 6 mps 767 mmHg 43%
15:00 +21°C° 0 mm 7 mps 766 mmHg 42%
16:00 +20°C° 0 mm 6 mps 767 mmHg 47%
17:00 +17°C° 0 mm 5 mps 767 mmHg 52%
18:00 +16°C° 0 mm 5 mps 767 mmHg 57%
19:00 +15°C° 0 mm 4 mps 767 mmHg 61%
20:00 +15°C° 0 mm 4 mps 767 mmHg 66%
21:00 +14°C° 0 mm 3 mps 767 mmHg 70%
22:00 +14°C° 0 mm 3 mps 767 mmHg 71%
23:00 +14°C° 0 mm 3 mps 767 mmHg 73%

18 April, Sunday

Time Temperature Precipitation Wind Pressure Humidity
00:00 +15°C° 0 mm 2 mps 767 mmHg 74%
01:00 +14°C° 0 mm 2 mps 767 mmHg 75%
02:00 +14°C° 0 mm 2 mps 766 mmHg 76%
03:00 +14°C° 0 mm 2 mps 766 mmHg 77%
04:00 +14°C° 0 mm 2 mps 766 mmHg 77%
05:00 +14°C° 0 mm 1 mps 767 mmHg 78%
06:00 +14°C° 0 mm 1 mps 767 mmHg 78%
07:00 +15°C° 0 mm 2 mps 767 mmHg 72%
08:00 +17°C° 0 mm 2 mps 767 mmHg 67%
09:00 +19°C° 0 mm 2 mps 767 mmHg 61%
10:00 +20°C° 0 mm 3 mps 766 mmHg 55%
11:00 +21°C° 0 mm 3 mps 766 mmHg 50%
12:00 +22°C° 0 mm 3 mps 765 mmHg 45%
13:00 +22°C° 0 mm 4 mps 765 mmHg 45%
14:00 +22°C° 0 mm 5 mps 764 mmHg 45%
15:00 +22°C° 0 mm 6 mps 764 mmHg 45%
16:00 +20°C° 0 mm 5 mps 764 mmHg 50%
17:00 +19°C° 0 mm 5 mps 764 mmHg 55%
18:00 +17°C° 0 mm 4 mps 764 mmHg 60%
19:00 +17°C° 0 mm 4 mps 764 mmHg 63%
20:00 +17°C° 0 mm 3 mps 764 mmHg 66%
21:00 +16°C° 0 mm 3 mps 764 mmHg 69%
22:00 +16°C° 0 mm 2 mps 764 mmHg 69%
23:00 +16°C° 0 mm 2 mps 764 mmHg 70%

19 April, Monday

Time Temperature Precipitation Wind Pressure Humidity
00:00 +15°C° 0 mm 2 mps 764 mmHg 71%
01:00 +15°C° 0 mm 2 mps 763 mmHg 72%
02:00 +15°C° 0 mm 2 mps 763 mmHg 73%
03:00 +15°C° 0 mm 2 mps 763 mmHg 74%
04:00 +14°C° 0 mm 2 mps 763 mmHg 75%
05:00 +14°C° 0 mm 2 mps 763 mmHg 76%
06:00 +14°C° 0 mm 1 mps 763 mmHg 76%
07:00 +16°C° 0 mm 1 mps 763 mmHg 68%
08:00 +18°C° 0 mm 1 mps 763 mmHg 59%
09:00 +18°C° 0 mm 0 mps 763 mmHg 50%
10:00 +21°C° 0 mm 1 mps 762 mmHg 45%
11:00 +23°C° 0 mm 1 mps 762 mmHg 41%
12:00 +24°C° 0 mm 2 mps 761 mmHg 36%
13:00 +24°C° 0 mm 2 mps 761 mmHg 34%
14:00 +25°C° 0 mm 2 mps 760 mmHg 33%
15:00 +25°C° 0 mm 2 mps 759 mmHg 31%
16:00 +24°C° 0 mm 2 mps 760 mmHg 34%
17:00 +21°C° 0 mm 2 mps 760 mmHg 37%
18:00 +20°C° 0 mm 2 mps 760 mmHg 39%
19:00 +20°C° 0 mm 2 mps 760 mmHg 39%
20:00 +19°C° 0 mm 2 mps 760 mmHg 39%
21:00 +18°C° 0 mm 3 mps 760 mmHg 39%
22:00 +18°C° 0 mm 3 mps 760 mmHg 45%
23:00 +17°C° 0 mm 3 mps 760 mmHg 52%

20 April, Tuesday

Time Temperature Precipitation Wind Pressure Humidity
00:00 +16°C° 0 mm 3 mps 761 mmHg 58%
01:00 +15°C° 0 mm 2 mps 760 mmHg 63%
02:00 +15°C° 0 mm 2 mps 760 mmHg 67%
03:00 +14°C° 0 mm 1 mps 760 mmHg 72%
04:00 +14°C° 0 mm 1 mps 760 mmHg 72%
05:00 +13°C° 0 mm 2 mps 761 mmHg 72%
06:00 +13°C° 0 mm 2 mps 761 mmHg 73%
07:00 +15°C° 0 mm 2 mps 761 mmHg 66%
08:00 +16°C° 0 mm 2 mps 762 mmHg 60%
09:00 +18°C° 0 mm 2 mps 762 mmHg 53%
10:00 +19°C° 0 mm 2 mps 761 mmHg 47%
11:00 +21°C° 0 mm 3 mps 761 mmHg 41%
12:00 +22°C° 0 mm 3 mps 760 mmHg 35%
13:00 +24°C° 0 mm 3 mps 760 mmHg 35%
14:00 +24°C° 0 mm 3 mps 759 mmHg 35%
15:00 +25°C° 0 mm 3 mps 759 mmHg 35%
16:00 +24°C° 0 mm 3 mps 759 mmHg 39%
17:00 +22°C° 0 mm 4 mps 760 mmHg 44%
18:00 +21°C° 0 mm 4 mps 760 mmHg 49%
19:00 +20°C° 0 mm 3 mps 760 mmHg 52%
20:00 +19°C° 0 mm 2 mps 760 mmHg 55%
21:00 +20°C° 0 mm 1 mps 761 mmHg 58%
22:00 +19°C° 0 mm 1 mps 761 mmHg 62%
23:00 +17°C° 0 mm 2 mps 761 mmHg 66%
Show more

We Need Your Consent

Meteoprog and our Service Providers may store and access personal data such as cookies, device identifiers or other similar technologies on your device and process such data to personalise content and ads, as well as provide social media features and to analyse the traffic.

  • Store and/or access information on your device

    Cookies, device identifiers or other information can be stored or accessed on your device for the purposes indicated above.

  • Personalised ads and content, ad and content measurement, audience insights, and products development

    Ads and content can be personalised based on a profile. More data can be added to better personalise ads and content. Ad and content performance can be measured. Insights about the audience who saw the ads and content can be derived. Such data can be used to develop or improve user’s experience, systems and software.

By clicking ‘I Agree’ you will allow the use of indicated cookies, device identifiers, web beacons or other similar technologies. Your settings can be changed in the browser on your device.

For certain purposes, legitimate interests may be relied on, rather than consent. You can read more about this in our Privacy and Cookie Policy.